• In Belgium
  • List of Countries
  • For 7 days
  • Water Temperature
  • Satellite Maps
  • Weather Map
  • Weather Widgets
  • user-avatar
    Login

    Hourly Weather Darwin

    Today, 26 June, Monday

    Time Temperature Precipitation Wind Pressure Humidity
    00:00 +20°C° 0 mm 2 mps 759 mmHg 89%
    01:00 +20°C° 0 mm 2 mps 759 mmHg 87%
    02:00 +20°C° 0 mm 2 mps 759 mmHg 85%
    03:00 +21°C° 0 mm 3 mps 759 mmHg 82%
    04:00 +20°C° 0 mm 3 mps 759 mmHg 81%
    05:00 +20°C° 0 mm 3 mps 759 mmHg 80%
    06:00 +20°C° 0 mm 4 mps 759 mmHg 79%
    07:00 +22°C° 0 mm 4 mps 759 mmHg 73%
    08:00 +23°C° 0 mm 4 mps 760 mmHg 68%
    09:00 +26°C° 0 mm 4 mps 760 mmHg 62%
    10:00 +28°C° 0 mm 4 mps 760 mmHg 54%
    11:00 +30°C° 0 mm 4 mps 760 mmHg 46%
    12:00 +33°C° 0 mm 4 mps 759 mmHg 38%
    13:00 +34°C° 0 mm 4 mps 759 mmHg 37%
    14:00 +34°C° 0 mm 4 mps 758 mmHg 35%
    15:00 +34°C° 0 mm 4 mps 758 mmHg 34%
    16:00 +32°C° 0 mm 4 mps 758 mmHg 41%
    17:00 +29°C° 0 mm 4 mps 758 mmHg 47%
    18:00 +27°C° 0 mm 4 mps 758 mmHg 54%
    19:00 +26°C° 0 mm 3 mps 759 mmHg 60%
    20:00 +25°C° 0 mm 3 mps 759 mmHg 66%
    21:00 +22°C° 0 mm 3 mps 760 mmHg 72%
    22:00 +22°C° 0 mm 3 mps 760 mmHg 75%
    23:00 +21°C° 0 mm 2 mps 760 mmHg 78%

    Tomorrow, 27 June, Tuesday

    Time Temperature Precipitation Wind Pressure Humidity
    00:00 +21°C° 0 mm 2 mps 760 mmHg 81%
    01:00 +21°C° 0 mm 2 mps 760 mmHg 82%
    02:00 +21°C° 0 mm 2 mps 760 mmHg 83%
    03:00 +21°C° 0 mm 2 mps 760 mmHg 84%
    04:00 +21°C° 0 mm 2 mps 760 mmHg 83%
    05:00 +20°C° 0 mm 3 mps 760 mmHg 83%
    06:00 +20°C° 0 mm 3 mps 760 mmHg 82%
    07:00 +22°C° 0 mm 3 mps 760 mmHg 74%
    08:00 +25°C° 0 mm 3 mps 760 mmHg 66%
    09:00 +27°C° 0 mm 4 mps 761 mmHg 59%
    10:00 +29°C° 0 mm 3 mps 760 mmHg 52%
    11:00 +31°C° 0 mm 3 mps 760 mmHg 45%
    12:00 +34°C° 0 mm 3 mps 760 mmHg 38%
    13:00 +35°C° 0 mm 2 mps 759 mmHg 36%
    14:00 +35°C° 0 mm 2 mps 758 mmHg 34%
    15:00 +36°C° 0 mm 2 mps 758 mmHg 32%
    16:00 +33°C° 0 mm 3 mps 758 mmHg 41%
    17:00 +30°C° 0 mm 3 mps 758 mmHg 51%
    18:00 +28°C° 0 mm 3 mps 758 mmHg 60%
    19:00 +26°C° 0 mm 2 mps 759 mmHg 68%
    20:00 +25°C° 0 mm 2 mps 759 mmHg 77%
    21:00 +23°C° 0 mm 1 mps 760 mmHg 85%
    22:00 +23°C° 0 mm 2 mps 760 mmHg 86%
    23:00 +23°C° 0 mm 2 mps 760 mmHg 86%

    Day after tomorrow, 28 June, Wednesday

    Time Temperature Precipitation Wind Pressure Humidity
    00:00 +23°C° 0 mm 2 mps 760 mmHg 87%
    01:00 +23°C° 0 mm 2 mps 760 mmHg 86%
    02:00 +23°C° 0 mm 2 mps 759 mmHg 85%
    03:00 +23°C° 0 mm 2 mps 759 mmHg 84%
    04:00 +23°C° 0 mm 2 mps 759 mmHg 84%
    05:00 +22°C° 0 mm 3 mps 759 mmHg 84%
    06:00 +22°C° 0 mm 3 mps 760 mmHg 85%
    07:00 +24°C° 0 mm 3 mps 760 mmHg 78%
    08:00 +26°C° 0 mm 4 mps 760 mmHg 72%
    09:00 +28°C° 0 mm 4 mps 761 mmHg 66%
    10:00 +30°C° 0 mm 3 mps 760 mmHg 58%
    11:00 +33°C° 0 mm 3 mps 760 mmHg 51%
    12:00 +35°C° 0 mm 3 mps 760 mmHg 43%
    13:00 +35°C° 0 mm 3 mps 759 mmHg 41%
    14:00 +36°C° 0 mm 3 mps 758 mmHg 39%
    15:00 +36°C° 0 mm 3 mps 758 mmHg 38%
    16:00 +34°C° 0 mm 3 mps 758 mmHg 45%
    17:00 +31°C° 0 mm 3 mps 758 mmHg 53%
    18:00 +29°C° 0 mm 3 mps 758 mmHg 61%
    19:00 +28°C° 0 mm 2 mps 759 mmHg 67%
    20:00 +27°C° 0 mm 2 mps 759 mmHg 73%
    21:00 +26°C° 0 mm 2 mps 760 mmHg 79%
    22:00 +25°C° 0 mm 2 mps 760 mmHg 82%
    23:00 +25°C° 0 mm 2 mps 760 mmHg 84%

    29 June, Thursday

    Time Temperature Precipitation Wind Pressure Humidity
    00:00 +25°C° 0 mm 2 mps 760 mmHg 87%
    01:00 +24°C° 0 mm 3 mps 760 mmHg 85%
    02:00 +24°C° 0 mm 3 mps 760 mmHg 82%
    03:00 +24°C° 0 mm 3 mps 759 mmHg 80%
    04:00 +22°C° 0 mm 3 mps 759 mmHg 77%
    05:00 +22°C° 0 mm 3 mps 760 mmHg 75%
    06:00 +21°C° 0 mm 4 mps 760 mmHg 73%
    07:00 +23°C° 0 mm 4 mps 760 mmHg 67%
    08:00 +26°C° 0 mm 4 mps 761 mmHg 62%
    09:00 +27°C° 0 mm 5 mps 761 mmHg 57%
    10:00 +29°C° 0 mm 5 mps 761 mmHg 50%
    11:00 +32°C° 0 mm 5 mps 760 mmHg 44%
    12:00 +34°C° 0 mm 5 mps 760 mmHg 37%
    13:00 +35°C° 0 mm 5 mps 759 mmHg 36%
    14:00 +36°C° 0 mm 4 mps 758 mmHg 35%
    15:00 +36°C° 0 mm 4 mps 758 mmHg 34%
    16:00 +35°C° 0 mm 3 mps 758 mmHg 39%
    17:00 +33°C° 0 mm 3 mps 758 mmHg 44%
    18:00 +30°C° 0 mm 2 mps 758 mmHg 48%
    19:00 +30°C° 0 mm 3 mps 759 mmHg 48%
    20:00 +29°C° 0 mm 3 mps 760 mmHg 48%
    21:00 +29°C° 0 mm 4 mps 760 mmHg 47%
    22:00 +28°C° 0 mm 4 mps 760 mmHg 46%
    23:00 +27°C° 0 mm 5 mps 760 mmHg 45%

    30 June, Friday

    Time Temperature Precipitation Wind Pressure Humidity
    00:00 +27°C° 0 mm 6 mps 760 mmHg 44%
    01:00 +26°C° 0 mm 6 mps 760 mmHg 46%
    02:00 +24°C° 0 mm 7 mps 760 mmHg 47%
    03:00 +24°C° 0 mm 7 mps 759 mmHg 49%
    04:00 +23°C° 0 mm 7 mps 760 mmHg 49%
    05:00 +23°C° 0 mm 7 mps 760 mmHg 50%
    06:00 +23°C° 0 mm 7 mps 760 mmHg 50%
    07:00 +24°C° 0 mm 7 mps 760 mmHg 48%
    08:00 +26°C° 0 mm 7 mps 761 mmHg 46%
    09:00 +27°C° 0 mm 8 mps 761 mmHg 44%
    10:00 +28°C° 0 mm 7 mps 761 mmHg 41%
    11:00 +30°C° 0 mm 6 mps 760 mmHg 37%
    12:00 +33°C° 0 mm 6 mps 760 mmHg 34%
    13:00 +33°C° 0 mm 5 mps 759 mmHg 33%
    14:00 +34°C° 0 mm 4 mps 758 mmHg 33%
    15:00 +35°C° 0 mm 4 mps 758 mmHg 32%
    16:00 +33°C° 0 mm 3 mps 758 mmHg 36%
    17:00 +31°C° 0 mm 2 mps 758 mmHg 40%
    18:00 +29°C° 0 mm 2 mps 758 mmHg 43%
    19:00 +28°C° 0 mm 2 mps 759 mmHg 45%
    20:00 +27°C° 0 mm 3 mps 760 mmHg 47%
    21:00 +26°C° 0 mm 3 mps 760 mmHg 49%
    22:00 +26°C° 0 mm 4 mps 760 mmHg 50%
    23:00 +25°C° 0 mm 5 mps 760 mmHg 51%

    1 July, Saturday

    Time Temperature Precipitation Wind Pressure Humidity
    00:00 +25°C° 0 mm 5 mps 760 mmHg 52%
    01:00 +25°C° 0 mm 5 mps 759 mmHg 54%
    02:00 +23°C° 0 mm 5 mps 759 mmHg 56%
    03:00 +23°C° 0 mm 5 mps 759 mmHg 58%
    04:00 +23°C° 0 mm 5 mps 759 mmHg 60%
    05:00 +23°C° 0 mm 6 mps 759 mmHg 62%
    06:00 +23°C° 0 mm 6 mps 760 mmHg 63%
    07:00 +24°C° 0 mm 6 mps 760 mmHg 62%
    08:00 +26°C° 0 mm 6 mps 760 mmHg 61%
    09:00 +27°C° 0 mm 6 mps 761 mmHg 61%
    10:00 +29°C° 0 mm 6 mps 760 mmHg 56%
    11:00 +32°C° 0 mm 5 mps 759 mmHg 52%
    12:00 +34°C° 0 mm 4 mps 759 mmHg 48%
    13:00 +35°C° 0 mm 4 mps 758 mmHg 47%
    14:00 +35°C° 0 mm 4 mps 758 mmHg 46%
    15:00 +36°C° 0 mm 3 mps 757 mmHg 44%
    16:00 +34°C° 0.1 mm 3 mps 757 mmHg 52%
    17:00 +31°C° 0.1 mm 2 mps 758 mmHg 60%
    18:00 +29°C° 0.1 mm 2 mps 758 mmHg 69%
    19:00 +28°C° 0.2 mm 2 mps 758 mmHg 73%
    20:00 +27°C° 0.2 mm 2 mps 759 mmHg 78%
    21:00 +26°C° 0.2 mm 2 mps 760 mmHg 82%
    22:00 +26°C° 0.2 mm 2 mps 760 mmHg 83%
    23:00 +26°C° 0.2 mm 2 mps 759 mmHg 83%
    Show more